Back to catalog

STARLINK-30885

AliveCommunicationsVLEO
NORAD 58361·PAYLOAD·🇺🇸 United States

Launched Nov 18, 2023 from Cape Canaveral Space Force Station

Loading…

Next Passes (next 24 hours)

TLE

FreshSource: CelesTrak SupGP

Epoch: Sep 14, 2026, 22:12 UTC

1 58361C 23177L   26257.92548611 -.00070064  00000+0 -25372-2 0  2577
2 58361  43.0043   1.8013 0001694 265.2480 316.4444 15.27619913    10

Track STARLINK-30885 in real time with AllMySat

Download on the App Store